CZ-6A DEB, 55007

Orbit data source: Space-Track

CZ-6A DEB, 55007 is space debris in SSO originally from a launch on Fri, 11 Nov 2022 UTC launched from the Taiyaun Space Center, China (TSC). Debris objects in space refer to the collection of defunct objects orbiting the Earth. Examples of debris include non-operational satellites, rocket bodies, and fragments generated from explosions, collisions, or faulty payload assembly.

Loading next visibility...
Identifier
55007, 2022-151UX
Orbit
SSO
Country
Flag of CNCN / PRC
Related business
Manufacturer
SAST
Mission
Spacecraft
Bus & Motor
Unknown
Mass
Unknown
Launch date (UTC)
2022-11-11 (3 years ago)
Launch vehicle
Unknown
Launch site
Taiyaun Space Center, China (TSC)
Object type
Payload
Rocket body
Debris
Shape & HBR
Unknown shape, 0.1 m
Radar Cross Section
Small (<0.1 m²)

Expand to show TLE details & history
Last TLE update: 2 days ago

TLE from 2 days ago
0 CZ-6A DEB
1 55007U 22151UX  25349.14546572  .00054606  00000-0  35680-2 0  9990
2 55007  98.6475  60.3287 0034185  77.5566 282.9480 15.07114421163303
Epoch: 2025-12-15T03:29Z
TLE epoch observation values (Epoch: 2025-12-15T03:29:28.238Z)
Latitude
-0.00003°
Longitude
-76.08718°
Altitude
542.83 km
Speed
7.594 km/s
True Right ascension
04h 01m 18s
True Declination
0° 00' 00"
Sunlit
Object was in full shadow at epoch
Visualization orbit readout
Latitude
Unknown
Longitude
Unknown
Altitude
Unknown
Speed
Unknown
Apparent Right ascension
Unknown
Apparent Declination
Unknown
Sunlit
N/A
Visualization observer readout
Local Sidereal Time
15:44:01
Azimuth
Unknown
Elevation
Unknown
Doppler factor
Unknown
Orbital elements
Apogee altitude
565.72 km
Perigee altitude
518.406 km
Semi-major axis
6,920.2 km
Eccentricity
0.00342
Inclination
98.6475°
RAAN
60.3287°
Arg. of periapsis
77.5566°
True anomaly
282.56587°
Mean anomaly
282.948°
Eccentric anomaly
282.75697°
Mean motion
3.77021 °/min
Orbital period
95.49 mins
BSTAR
0.003568
Loading maneuver chart data...
Computing Atmospheric mass density...
Loading historical data...
Loading historical data...
Loading historical data...
Loading historical data...
Loading historical data...
Loading historical data...
Loading historical data...

Documentation

Showing up to 5 results
|